This is the latest recevied weather packets stored in our database for station/object KQ4PPF. If no packets are shown the sender has not sent any weather packets the latest 10 day(s).
| Time | Temp. | Humidity | Pressure | Rain* | Wind** | Luminosity | Snow |
|---|---|---|---|---|---|---|---|
| 1777825727 | 17.22° C | 43% | 1021.4 hPa | 0 mm | - | 830 W/m² | - |
| 1777825426 | 16.67° C | 45% | 1021.2 hPa | 0 mm | - | 773 W/m² | - |
| 1777825122 | 16.67° C | 47% | 1021.3 hPa | 0 mm | - | 732 W/m² | - |
| 1777824818 | 17.22° C | 45% | 1021.5 hPa | 0 mm | - | 766 W/m² | - |
| 1777824515 | 16.67° C | 49% | 1021.4 hPa | 0 mm | - | 812 W/m² | - |
| 1777824211 | 16.11° C | 46% | 1021.3 hPa | 0 mm | - | 837 W/m² | - |
| 1777823907 | 16.67° C | 46% | 1021.5 hPa | 0 mm | - | 850 W/m² | - |
| 1777823605 | 17.22° C | 49% | 1021.3 hPa | 0 mm | - | 853 W/m² | - |
| 1777823302 | 16.67° C | 47% | 1021.7 hPa | 0 mm | - | 817 W/m² | - |
| 1777823000 | 16.11° C | 45% | 1021.8 hPa | 0 mm | - | 829 W/m² | - |
| 1777822697 | 16.11° C | 46% | 1021.7 hPa | 0 mm | - | 845 W/m² | - |
| 1777822395 | 16.67° C | 47% | 1021.8 hPa | 0 mm | - | 795 W/m² | - |
| 1777822092 | 16.11° C | 48% | 1021.9 hPa | 0 mm | - | 767 W/m² | - |
| 1777821790 | 16.67° C | 47% | 1021.7 hPa | 0 mm | - | 803 W/m² | - |
| 1777821487 | 16.67° C | 49% | 1021.8 hPa | 0 mm | - | 816 W/m² | - |
| 1777821184 | 15.56° C | 52% | 1022 hPa | 0 mm | - | 827 W/m² | - |
| 1777820881 | 15.56° C | 52% | 1022.1 hPa | 0 mm | - | 814 W/m² | - |
| 1777820577 | 15.56° C | 48% | 1021.9 hPa | 0 mm | - | 794 W/m² | - |
| 1777820274 | 15.56° C | 49% | 1021.8 hPa | 0 mm | - | 787 W/m² | - |
| 1777819972 | 16.11° C | 54% | 1022 hPa | 0 mm | - | 763 W/m² | - |
| 1777819669 | 15° C | 50% | 1021.8 hPa | 0 mm | - | 722 W/m² | - |
| 1777819367 | 15° C | 57% | 1021.6 hPa | 0 mm | - | 688 W/m² | - |
| 1777819063 | 15° C | 60% | 1021.7 hPa | 0 mm | - | 695 W/m² | - |
| 1777818761 | 14.44° C | 59% | 1021.7 hPa | 0 mm | - | 719 W/m² | - |
| 1777818457 | 13.89° C | 61% | 1021.7 hPa | 0 mm | - | 624 W/m² | - |
* Rain latest hour (hover to see other rain measurements)
** Current wind speed in m/s (hover to see current wind gust speed)